Location: Unspecified
(41.6616°N, 0.0000°E)
Time: 04:51:27
(UTC+00:00)

UNISAT 6 - Visible Passes

Search period start: 04 April 2026 00:00
Search period end: 14 April 2026 00:00
Orbit: 574 x 636 km, 97.8° (Epoch: 28 March)

Date Brightness Start Highest point End Pass type
(mag) Time Alt. Az. Time Alt. Az. Time Alt. Az.
4 Apr ? 02:31:51 29° ENE 02:31:51 29° ENE 02:35:10 10° N visible
4 Apr ? 04:08:40 20° WNW 04:08:40 20° WNW 04:10:41 10° NW visible
5 Apr ? 02:44:18 39° ENE 02:44:18 39° ENE 02:47:56 10° N visible
5 Apr ? 04:21:07 16° WNW 04:21:07 16° WNW 04:22:46 10° NW visible
6 Apr ? 02:56:45 53° NE 02:56:45 53° NE 03:00:37 10° N visible
6 Apr ? 04:33:34 12° WNW 04:33:34 12° WNW 04:34:29 10° WNW visible
7 Apr ? 03:09:12 72° NNE 03:09:12 72° NNE 03:13:13 10° N visible
8 Apr ? 01:45:20 10° ENE 01:46:17 11° ENE 01:47:15 10° NE visible
8 Apr ? 03:21:38 74° WNW 03:21:38 74° WNW 03:25:46 10° NNW visible
9 Apr ? 01:57:15 13° E 01:58:39 14° ENE 02:00:58 10° NNE visible
9 Apr ? 03:34:04 55° W 03:34:04 55° W 03:38:14 10° NNW visible
10 Apr ? 02:09:40 17° E 02:11:01 19° ENE 02:14:05 10° NNE visible
10 Apr ? 03:46:30 39° W 03:46:32 39° W 03:50:37 10° NNW visible
11 Apr ? 02:22:06 21° E 02:23:25 25° ENE 02:26:59 10° NNE visible
11 Apr ? 03:58:55 29° W 03:59:05 29° W 04:02:54 10° NW visible
12 Apr ? 02:34:31 27° ESE 02:35:50 33° ENE 02:39:45 10° N visible
12 Apr ? 04:11:21 21° W 04:11:41 22° W 04:15:03 10° NW visible
13 Apr ? 02:46:56 34° ESE 02:48:15 45° ENE 02:52:26 10° N visible
13 Apr ? 04:23:45 16° W 04:24:18 16° W 04:26:59 10° NW visible
